User: anonymous   Login
Location: Syracuse
(43.0480°N, 76.1480°W)
Time: 06:44:52
(UTC-04:00)
Language:

Cosmos 1140 Rocket - Orbit

View from above orbital plane
View from above orbital plane
View from above satellite
View from above satellite

Ground track
Ground track

The orbit data is extracted from the following two-line orbital elements,

1 11574U 79089B   16205.87383161  .00000046  00000-0  22607-4 0  9993
2 11574  74.0702 105.0363 0014868  94.1435 266.1420 14.40579440929864
Epoch (UTC): 23 July 2016 20:58:19
Eccentricity: 0.0014868
inclination: 74.0702°
perigee height: 746 km
apogee height: 767 km
right ascension of ascending node: 105.0363°
argument of perigee: 94.1435°
revolutions per day: 14.40579440
mean anomaly at epoch: 266.1420°
orbit number at epoch: 92986

The dashed part of the orbit path shows where the satellite is in the earth's shadow,  

DLR